Window Rock, AZ (86515)

4:42 AM MDT on September 02, 2015 (GMT -0600)
Window Rock | | Change Station
CLOSE
Current Station
Airport
Location: Window Rock,
Elevation: 6742 ft
Nearby Weather Stations

Elev 6742 ft 35.66 °N, 109.06 °W | Updated 49 minutes ago

Clear
Clear
51 °F
Feels Like 51 °F
N
5
Wind Variable Wind from South

Today
High -- | Low -- °F
--% Chance of Precip.
Yesterday
High -- | Low -- °F
Precip. -- in
6:49 AM 7:42 PM
Waning Gibbous, 81% visible
Pressure 29.96 in
Visibility 10.0 miles
Clouds Clear
Dew Point 48 °F
Humidity 89%
Rainfall 0.00 in
Snow Depth Not available.
UV 0 out of 12
Pollen 8.20 out of 12
Air Quality Not available.
Flu Activity Not available.
METAR KRQE 020953Z AUTO 19004KT 10SM CLR 11/09 A3030 RMK AO2 SLP146 T01060089 TSNO
Pressure 29.96 in
Visibility 10.0 miles
Clouds Clear
Dew Point 48 °F
Humidity 89%
Rainfall 0.00 in
Snow Depth Not available.
UV 0 out of 12
Pollen 8.20 out of 12
Air Quality Not available.
Flu Activity Not available.
METAR KRQE 020953Z AUTO 19004KT 10SM CLR 11/09 A3030 RMK AO2 SLP146 T01060089 TSNO

10-Day Weather Forecast

×

Almanac

Astronomy

Sep. 02, 2015 Rise Set
Actual Time
Civil Twilight
Nautical Twilight
Astronomical Twilight
Moon
Length of Visible Light
Length of Day
Tomorrow will be .
, % of the Moon is Illuminated

Today's Extremes

State Highs State Lows

Community

WunderPhotos

Upload Photos

1,851,734 photos uploaded!

WunderBlogs® & News

Nearby

Air Quality

  Air Quality AQ Index Pollutant
Not available.

Snow Depth

Station Depth Elevation

Earthquake Activity

City Distance Mag. Time & Date
Minimum magnitude displayed is 2.5.

Coastal Water Temperatures

Place Temperature

Stations

Nearby Weather Stations

Station Location Temp. Windchill Dew Point Humidity Wind Precip. Elev Updated Type